Flag for Canada Weather past 2 weeks in Lloydminster, Alberta, Canada

Now
77 °F

Passing clouds.


Feels Like: 79 °F
Forecast: 58 / 82 °F
Wind: 14 mph from Southeast

Location: Lloydminister

Current Time: Jul 29, 2014 at 11:17:36 AM

Latest Report: Jul 29, 2014 at 11:00 AM


Visibility: 15 mi

Pressure: 30.19 "Hg

Humidity: 54%

Dew point: 59 °F

Location of LloydminsterLocation

Historic Weather in Lloydminster — Graph

°F

Lloydminster temperature yesterday

Maximum temperature yesterday: 79 °F (at 4:00 PM)
Minimum temperature yesterday: 54 °F (at 12:00 AM)
Average temperature yesterday: 67 °F

Past Weeks' High & Low Weather Summary

 TemperatureHumidityPressure
High81 °F (Jul 16, 2:00 PM)100% (Jul 17, 6:00 AM)30.37 "Hg (Jul 17, 6:00 AM)
Low48 °F (Jul 21, 3:00 AM)39% (Jul 15, 6:00 PM)29.45 "Hg (Jul 25, 9:51 AM)
Average62 °F78%29.93 "Hg
* Reported Jul 14 10:00 AM — Jul 29 10:00 AM, Lloydminster, Weather by CustomWeather, © 2014

Note: Actual official high and low records may vary slightly from our data, if they occured in-between our weather recording intervals... More about our weather records

Advertising

Lloydminster weather history for previous 24 hours

 ConditionsComfort  
Time TempWeatherWind HumidityBarometerVisibility
10:00 AM
Jul 29
75 °FPassing clouds.12 mph57%30.20 "Hg15 mi
9:00 AM72 °FPassing clouds.12 mph65%30.20 "Hg15 mi
8:00 AM66 °FPassing clouds.7 mph78%30.20 "Hg15 mi
7:00 AM57 °FPassing clouds.3 mph94%30.22 "Hg15 mi
6:00 AM57 °FClear.3 mph88%30.21 "Hg9 mi
5:00 AM59 °FClear.6 mph88%30.21 "Hg9 mi
4:00 AM59 °FPassing clouds.5 mph88%30.20 "Hg9 mi
3:00 AM61 °FClear.6 mph88%30.20 "Hg9 mi
2:00 AM63 °FPassing clouds.7 mph83%30.20 "Hg9 mi
1:00 AM63 °FClear.8 mph83%30.20 "Hg9 mi
12:00 AM63 °FClear.6 mph88%30.21 "Hg9 mi
11:00 PM
Jul 28
64 °FClear.5 mph83%30.20 "Hg9 mi
10:00 PM64 °FSunny.6 mph88%30.20 "Hg9 mi
9:00 PM68 °FPassing clouds.7 mph78%30.20 "Hg15 mi
8:00 PM75 °FPassing clouds.6 mph61%30.20 "Hg15 mi
7:00 PM77 °FPassing clouds.5 mph54%30.21 "Hg15 mi
6:00 PM77 °FScattered clouds.5 mph54%30.22 "Hg15 mi
5:00 PM77 °FScattered clouds.No wind51%30.22 "Hg15 mi
4:00 PM79 °FScattered clouds.2 mph48%30.24 "Hg15 mi
2:00 PM77 °FScattered clouds.5 mph51%30.26 "Hg15 mi
1:00 PM77 °FPassing clouds.7 mph54%30.27 "Hg15 mi
12:00 PM75 °FPassing clouds.6 mph61%30.27 "Hg15 mi
11:00 AM73 °FSunny.6 mph57%30.28 "Hg15 mi
Weather by CustomWeather, © 2014

See weather overviewHow to use our weather pages